Location: Ernsee
(50.8780°N, 12.0389°E)
Time: 01:58:53
(UTC+00:00)

STARLINK-21 - Pass Details

Date: 20 January 2020
Orbit: 528 x 531 km, 53.0° (Epoch: 22 February)

Event Time Altitude Azimuth Distance (km) Brightness Sun altitude
Rises 06:11:01 0° 238° (WSW) 2,663 6.8 -8.3°
Reaches altitude 10° 06:13:14 10° 235° (SW) 1,776 5.9 -8.0°
Maximum altitude 06:17:13 65° 154° (SSE) 588 4.0 -7.4°
Drops below altitude 10° 06:21:13 10° 73° (ENE) 1,779 7.0 -6.8°
Sets 06:23:28 0° 70° (ENE) 2,679 7.9 -6.5°
